Time,TemperatureF,DewpointF,PressureIn,WindDirection,WindDirectionDegrees,WindSpeedMPH,WindSpeedGustMPH,Humidity,HourlyPrecipIn,Conditions,Clouds,dailyrainin,SoftwareType,DateUTC
2013-04-04 00:00:00,37.1,13.1,30.08,NNW,337,2.0,4.7,37,0.00,,,0.00,Weather8,2013-04-04 04:00:00,
2013-04-04 00:01:00,36.9,12.9,30.08,NNW,337,2.0,4.7,37,0.00,,,0.00,Weather8,2013-04-04 04:01:00,
2013-04-04 00:06:00,36.9,12.9,30.08,North,0,1.6,4.7,37,0.00,,,0.00,Weather8,2013-04-04 04:06:00,
2013-04-04 00:09:00,36.9,12.9,30.08,NNW,337,2.7,4.7,37,0.00,,,0.00,Weather8,2013-04-04 04:09:00,
2013-04-04 00:11:00,36.7,12.7,30.08,NNW,337,0.7,4.7,37,0.00,,,0.00,Weather8,2013-04-04 04:11:00,
2013-04-04 00:16:00,36.7,13.3,30.09,SW,225,0.4,2.7,38,0.00,,,0.00,Weather8,2013-04-04 04:16:00,
2013-04-04 00:22:00,36.4,13.1,30.09,NNW,337,0.0,2.2,38,0.00,,,0.00,Weather8,2013-04-04 04:22:00,
2013-04-04 00:27:00,36.2,12.9,30.09,NW,315,4.3,5.6,38,0.00,,,0.00,Weather8,2013-04-04 04:27:00,
2013-04-04 00:32:00,36.2,12.9,30.09,NNW,337,3.1,7.6,38,0.00,,,0.00,Weather8,2013-04-04 04:32:00,
2013-04-04 00:37:00,36.2,12.9,30.10,NNW,337,2.2,7.6,38,0.00,,,0.00,Weather8,2013-04-04 04:37:00,
2013-04-04 00:42:00,36.2,12.9,30.09,WNW,292,2.0,7.6,38,0.00,,,0.00,Weather8,2013-04-04 04:42:00,
2013-04-04 00:47:00,36.0,13.3,30.09,NNW,337,1.8,3.4,39,0.00,,,0.00,Weather8,2013-04-04 04:47:00,
2013-04-04 00:52:00,35.8,13.2,30.10,North,0,1.8,2.7,39,0.00,,,0.00,Weather8,2013-04-04 04:52:00,
2013-04-04 00:57:00,35.6,13.1,30.10,NW,315,0.0,2.5,39,0.00,,,0.00,Weather8,2013-04-04 04:57:00,
2013-04-04 01:02:00,35.6,13.1,30.10,NW,315,0.9,2.0,39,0.00,,,0.00,Weather8,2013-04-04 05:02:00,
2013-04-04 01:07:00,35.5,12.9,30.10,North,0,0.2,1.3,39,0.00,,,0.00,Weather8,2013-04-04 05:07:00,
2013-04-04 01:12:00,35.3,13.3,30.10,NNW,337,1.3,1.8,40,0.00,,,0.00,Weather8,2013-04-04 05:12:00,
2013-04-04 01:17:00,34.9,13.1,30.10,NW,315,1.6,2.0,40,0.00,,,0.00,Weather8,2013-04-04 05:17:00,
2013-04-04 01:22:00,34.7,12.9,30.10,NW,315,2.0,2.2,40,0.00,,,0.00,Weather8,2013-04-04 05:22:00,
2013-04-04 01:27:00,34.6,12.7,30.10,NNW,337,1.3,2.2,40,0.00,,,0.00,Weather8,2013-04-04 05:27:00,
2013-04-04 01:32:00,34.6,12.7,30.11,NW,315,0.4,2.2,40,0.00,,,0.00,Weather8,2013-04-04 05:32:00,
2013-04-04 01:37:00,34.6,12.7,30.10,NW,315,0.2,2.0,40,0.00,,,0.00,Weather8,2013-04-04 05:37:00,
2013-04-04 01:42:00,34.4,12.5,30.11,NW,315,0.0,1.3,40,0.00,,,0.00,Weather8,2013-04-04 05:42:00,
2013-04-04 01:47:00,34.2,12.4,30.11,WNW,292,0.7,0.7,40,0.00,,,0.00,Weather8,2013-04-04 05:47:00,
2013-04-04 01:52:00,34.2,12.9,30.11,SW,225,1.1,1.1,41,0.00,,,0.00,Weather8,2013-04-04 05:52:00,
2013-04-04 01:57:00,33.7,12.9,30.12,SW,225,1.6,1.6,42,0.00,,,0.00,Weather8,2013-04-04 05:57:00,
2013-04-04 02:02:00,33.3,12.6,30.12,SW,225,1.1,1.6,42,0.00,,,0.00,Weather8,2013-04-04 06:02:00,
2013-04-04 02:07:00,33.1,12.4,30.12,WSW,247,0.7,1.6,42,0.00,,,0.00,Weather8,2013-04-04 06:07:00,
2013-04-04 02:12:00,32.9,12.8,30.12,SW,225,0.4,1.3,43,0.00,,,0.00,Weather8,2013-04-04 06:12:00,
2013-04-04 02:17:00,32.8,12.6,30.13,West,270,0.2,0.7,43,0.00,,,0.00,Weather8,2013-04-04 06:17:00,
2013-04-04 02:22:00,32.8,12.6,30.13,WNW,292,0.7,0.9,43,0.00,,,0.00,Weather8,2013-04-04 06:22:00,
2013-04-04 02:27:00,32.8,12.6,30.13,WNW,292,0.0,0.9,43,0.00,,,0.00,Weather8,2013-04-04 06:27:00,
2013-04-04 02:32:00,32.6,12.4,30.13,NW,315,0.2,1.8,43,0.00,,,0.00,Weather8,2013-04-04 06:32:00,
2013-04-04 02:37:00,32.4,12.2,30.13,WNW,292,0.2,1.8,43,0.00,,,0.00,Weather8,2013-04-04 06:37:00,
2013-04-04 02:42:00,32.4,12.2,30.13,WNW,292,0.0,1.8,43,0.00,,,0.00,Weather8,2013-04-04 06:42:00,
2013-04-04 02:47:00,32.2,12.6,30.12,West,270,0.4,0.4,44,0.00,,,0.00,Weather8,2013-04-04 06:47:00,
2013-04-04 02:52:00,32.0,12.0,30.12,WNW,292,0.7,1.1,43,0.00,,,0.00,Weather8,2013-04-04 06:52:00,
2013-04-04 02:57:00,31.9,12.3,30.12,NNW,337,0.7,1.8,44,0.00,,,0.00,Weather8,2013-04-04 06:57:00,
2013-04-04 03:02:00,31.7,12.2,30.12,NNW,337,0.0,1.8,44,0.00,,,0.00,Weather8,2013-04-04 07:02:00,
2013-04-04 03:07:00,31.7,12.2,30.12,SW,225,0.7,1.3,44,0.00,,,0.00,Weather8,2013-04-04 07:07:00,
2013-04-04 03:12:00,31.5,12.0,30.12,SW,225,0.2,0.7,44,0.00,,,0.00,Weather8,2013-04-04 07:12:00,
2013-04-04 03:17:00,31.3,11.8,30.11,SW,225,0.4,0.7,44,0.00,,,0.00,Weather8,2013-04-04 07:17:00,
2013-04-04 03:22:00,31.3,12.8,30.11,NNW,337,1.1,1.6,46,0.00,,,0.00,Weather8,2013-04-04 07:22:00,
2013-04-04 03:27:00,31.1,12.2,30.11,NNW,337,0.0,1.6,45,0.00,,,0.00,Weather8,2013-04-04 07:27:00,
2013-04-04 03:32:00,31.0,12.0,30.11,NNW,337,0.7,1.3,45,0.00,,,0.00,Weather8,2013-04-04 07:32:00,
2013-04-04 03:37:00,31.0,12.5,30.12,NNW,337,0.0,0.7,46,0.00,,,0.00,Weather8,2013-04-04 07:37:00,
2013-04-04 03:42:00,30.8,12.9,30.11,NNW,337,1.8,1.8,47,0.00,,,0.00,Weather8,2013-04-04 07:42:00,
2013-04-04 03:47:00,30.6,12.7,30.12,NNW,337,0.2,1.8,47,0.00,,,0.00,Weather8,2013-04-04 07:47:00,
2013-04-04 03:52:00,30.6,12.7,30.12,NNW,337,0.0,1.8,47,0.00,,,0.00,Weather8,2013-04-04 07:52:00,
2013-04-04 03:57:00,30.4,13.1,30.12,NW,315,0.4,0.4,48,0.00,,,0.00,Weather8,2013-04-04 07:57:00,
2013-04-04 04:02:00,30.2,12.9,30.12,NW,315,0.7,1.1,48,0.00,,,0.00,Weather8,2013-04-04 08:02:00,
2013-04-04 04:07:00,30.2,12.9,30.13,NW,315,0.0,1.1,48,0.00,,,0.00,Weather8,2013-04-04 08:07:00,
2013-04-04 04:12:00,30.2,12.9,30.13,WNW,292,0.4,1.1,48,0.00,,,0.00,Weather8,2013-04-04 08:12:00,
2013-04-04 04:17:00,30.2,12.9,30.12,West,270,0.4,0.7,48,0.00,,,0.00,Weather8,2013-04-04 08:17:00,
2013-04-04 04:22:00,30.2,12.9,30.12,WNW,292,0.4,0.7,48,0.00,,,0.00,Weather8,2013-04-04 08:22:00,
2013-04-04 04:27:00,30.2,13.3,30.12,NW,315,1.1,1.1,49,0.00,,,0.00,Weather8,2013-04-04 08:27:00,
2013-04-04 04:32:00,30.1,13.7,30.12,NNW,337,1.1,1.8,50,0.00,,,0.00,Weather8,2013-04-04 08:32:00,
2013-04-04 04:37:00,29.9,13.5,30.12,WNW,292,0.4,1.8,50,0.00,,,0.00,Weather8,2013-04-04 08:37:00,
2013-04-04 04:42:00,29.9,13.1,30.13,NW,315,0.2,1.6,49,0.00,,,0.00,Weather8,2013-04-04 08:42:00,
2013-04-04 04:47:00,29.9,13.5,30.13,NNW,337,1.6,1.6,50,0.00,,,0.00,Weather8,2013-04-04 08:47:00,
2013-04-04 04:52:00,29.9,13.5,30.13,WNW,292,0.4,1.6,50,0.00,,,0.00,Weather8,2013-04-04 08:52:00,
2013-04-04 04:57:00,29.9,13.5,30.13,West,270,0.4,1.6,50,0.00,,,0.00,Weather8,2013-04-04 08:57:00,
2013-04-04 05:02:00,29.9,13.5,30.13,WNW,292,0.2,1.1,50,0.00,,,0.00,Weather8,2013-04-04 09:02:00,
2013-04-04 05:07:00,29.9,13.1,30.13,WNW,292,0.2,0.4,49,0.00,,,0.00,Weather8,2013-04-04 09:07:00,
2013-04-04 05:12:00,29.7,13.4,30.14,SSW,202,1.1,1.3,50,0.00,,,0.00,Weather8,2013-04-04 09:12:00,
2013-04-04 05:17:00,29.5,13.2,30.13,SSW,202,0.0,1.3,50,0.00,,,0.00,Weather8,2013-04-04 09:17:00,
2013-04-04 05:22:00,29.5,13.2,30.13,WNW,292,0.4,1.3,50,0.00,,,0.00,Weather8,2013-04-04 09:22:00,
2013-04-04 05:27:00,29.3,13.5,30.14,SW,225,0.9,1.1,51,0.00,,,0.00,Weather8,2013-04-04 09:27:00,
2013-04-04 05:32:00,29.2,13.3,30.14,SW,225,0.2,1.1,51,0.00,,,0.00,Weather8,2013-04-04 09:32:00,
2013-04-04 05:37:00,29.2,13.3,30.14,WNW,292,0.4,1.1,51,0.00,,,0.00,Weather8,2013-04-04 09:37:00,
2013-04-04 05:42:00,29.2,13.3,30.14,WNW,292,0.0,1.1,51,0.00,,,0.00,Weather8,2013-04-04 09:42:00,
2013-04-04 05:47:00,29.2,13.3,30.14,WNW,292,1.1,1.1,51,0.00,,,0.00,Weather8,2013-04-04 09:47:00,
2013-04-04 05:52:00,29.2,13.3,30.15,West,270,0.4,1.1,51,0.00,,,0.00,Weather8,2013-04-04 09:52:00,
2013-04-04 05:57:00,29.2,13.7,30.15,WNW,292,0.4,1.1,52,0.00,,,0.00,Weather8,2013-04-04 09:57:00,
2013-04-04 06:02:00,29.2,13.7,30.15,NW,315,1.3,1.6,52,0.00,,,0.00,Weather8,2013-04-04 10:02:00,
2013-04-04 06:07:00,29.0,14.0,30.15,NW,315,1.8,1.8,53,0.00,,,0.00,Weather8,2013-04-04 10:07:00,
2013-04-04 06:12:00,29.0,13.6,30.15,West,270,1.3,1.8,52,0.00,,,0.00,Weather8,2013-04-04 10:12:00,
2013-04-04 06:17:00,29.0,13.6,30.16,SSW,202,0.4,1.8,52,0.00,,,0.00,Weather8,2013-04-04 10:17:00,
2013-04-04 06:22:00,28.8,13.4,30.16,North,0,0.0,1.3,52,0.00,,,0.00,Weather8,2013-04-04 10:22:00,
2013-04-04 06:27:00,28.8,13.4,30.17,WSW,247,0.7,0.7,52,0.00,,,0.00,Weather8,2013-04-04 10:27:00,
2013-04-04 06:32:00,28.8,13.8,30.17,SW,225,0.7,1.3,53,0.00,,,0.00,Weather8,2013-04-04 10:32:00,
2013-04-04 06:37:00,28.8,13.8,30.17,NNW,337,0.7,1.3,53,0.00,,,0.00,Weather8,2013-04-04 10:37:00,
2013-04-04 06:42:00,28.8,13.8,30.17,WSW,247,0.0,1.3,53,0.00,,,0.00,Weather8,2013-04-04 10:42:00,
2013-04-04 06:47:00,28.8,14.2,30.18,NW,315,0.0,1.3,54,0.00,,,0.00,Weather8,2013-04-04 10:47:00,
2013-04-04 06:52:00,28.8,14.2,30.18,North,0,1.1,1.3,54,0.00,,,0.00,Weather8,2013-04-04 10:52:00,
2013-04-04 06:57:00,29.0,14.4,30.18,NNW,337,0.4,1.8,54,0.00,,,0.00,Weather8,2013-04-04 10:57:00,
2013-04-04 07:02:00,29.2,14.1,30.18,NNW,337,0.0,1.8,53,0.00,,,0.00,Weather8,2013-04-04 11:02:00,
2013-04-04 07:07:00,29.2,14.6,30.18,SW,225,0.4,1.3,54,0.00,,,0.00,Weather8,2013-04-04 11:07:00,
2013-04-04 07:12:00,29.3,15.1,30.18,NNW,337,1.3,1.3,55,0.00,,,0.00,Weather8,2013-04-04 11:12:00,
2013-04-04 07:17:00,29.5,14.9,30.18,WSW,247,0.9,1.3,54,0.00,,,0.00,Weather8,2013-04-04 11:17:00,
2013-04-04 07:23:00,29.7,15.0,30.18,WNW,292,0.2,1.3,54,0.00,,,0.00,Weather8,2013-04-04 11:23:00,
2013-04-04 07:28:00,30.1,15.8,30.18,West,270,1.8,2.2,55,0.00,,,0.00,Weather8,2013-04-04 11:28:00,
2013-04-04 07:33:00,30.2,15.9,30.18,WSW,247,0.4,2.2,55,0.00,,,0.00,Weather8,2013-04-04 11:33:00,
2013-04-04 07:38:00,30.6,16.3,30.18,SSW,202,0.4,2.2,55,0.00,,,0.00,Weather8,2013-04-04 11:38:00,
2013-04-04 07:43:00,31.0,16.7,30.18,NW,315,1.3,1.3,55,0.00,,,0.00,Weather8,2013-04-04 11:43:00,
2013-04-04 07:48:00,31.1,16.8,30.18,WNW,292,0.4,1.3,55,0.00,,,0.00,Weather8,2013-04-04 11:48:00,
2013-04-04 07:54:00,31.7,16.8,30.19,West,270,1.6,1.6,54,0.00,,,0.00,Weather8,2013-04-04 11:54:00,
2013-04-04 07:59:00,32.0,17.2,30.18,NNW,337,1.8,2.5,54,0.00,,,0.00,Weather8,2013-04-04 11:59:00,
2013-04-04 08:04:00,32.4,18.0,30.19,NNW,337,1.1,2.9,55,0.00,,,0.00,Weather8,2013-04-04 12:04:00,
2013-04-04 08:09:00,32.9,18.0,30.18,NNW,337,1.3,4.0,54,0.00,,,0.00,Weather8,2013-04-04 12:09:00,
2013-04-04 08:14:00,33.5,18.1,30.19,NNW,337,1.6,4.0,53,0.00,,,0.00,Weather8,2013-04-04 12:14:00,
2013-04-04 08:19:00,33.8,18.0,30.19,NW,315,1.8,3.4,52,0.00,,,0.00,Weather8,2013-04-04 12:19:00,
2013-04-04 08:25:00,34.4,18.1,30.18,North,0,3.6,4.7,51,0.00,,,0.00,Weather8,2013-04-04 12:25:00,
2013-04-04 08:30:00,34.9,18.6,30.19,NNW,337,1.3,4.7,51,0.00,,,0.00,Weather8,2013-04-04 12:30:00,
2013-04-04 08:35:00,35.3,18.5,30.19,NNW,337,4.0,4.0,50,0.00,,,0.00,Weather8,2013-04-04 12:35:00,
2013-04-04 08:40:00,35.6,18.4,30.18,North,0,3.4,6.7,49,0.00,,,0.00,Weather8,2013-04-04 12:40:00,
2013-04-04 08:45:00,35.8,18.0,30.18,NNW,337,2.7,6.7,48,0.00,,,0.00,Weather8,2013-04-04 12:45:00,
2013-04-04 08:50:00,36.4,18.6,30.18,NNW,337,2.0,4.7,48,0.00,,,0.00,Weather8,2013-04-04 12:50:00,
2013-04-04 08:55:00,36.4,18.6,30.17,NNW,337,3.1,3.1,48,0.00,,,0.00,Weather8,2013-04-04 12:55:00,
2013-04-04 09:00:00,36.9,17.9,30.18,NNW,337,4.7,4.7,46,0.00,,,0.00,Weather8,2013-04-04 13:00:00,
2013-04-04 09:05:00,37.3,18.8,30.18,NNW,337,2.7,4.7,47,0.00,,,0.00,Weather8,2013-04-04 13:05:00,
2013-04-04 09:10:00,37.4,18.5,30.18,NW,315,3.4,4.7,46,0.00,,,0.00,Weather8,2013-04-04 13:10:00,
2013-04-04 09:15:00,37.8,18.7,30.17,NW,315,3.1,5.1,46,0.00,,,0.00,Weather8,2013-04-04 13:15:00,
2013-04-04 09:20:00,38.3,19.3,30.17,NNW,337,4.5,5.4,46,0.00,,,0.00,Weather8,2013-04-04 13:20:00,
2013-04-04 09:25:00,38.5,18.9,30.17,North,0,3.1,5.4,45,0.00,,,0.00,Weather8,2013-04-04 13:25:00,
2013-04-04 09:30:00,38.9,19.2,30.17,NNE,22,1.8,4.5,45,0.00,,,0.00,Weather8,2013-04-04 13:30:00,
2013-04-04 09:35:00,39.1,19.4,30.17,NNW,337,2.5,4.7,45,0.00,,,0.00,Weather8,2013-04-04 13:35:00,
2013-04-04 09:40:00,39.4,19.7,30.17,NNW,337,2.9,4.7,45,0.00,,,0.00,Weather8,2013-04-04 13:40:00,
2013-04-04 09:45:00,39.8,20.0,30.17,SW,225,1.6,4.0,45,0.00,,,0.00,Weather8,2013-04-04 13:45:00,
2013-04-04 09:50:00,40.0,20.2,30.17,NW,315,2.5,4.0,45,0.00,,,0.00,Weather8,2013-04-04 13:50:00,
2013-04-04 09:55:00,40.7,20.4,30.17,SW,225,1.8,3.1,44,0.00,,,0.00,Weather8,2013-04-04 13:55:00,
2013-04-04 10:00:00,41.0,20.6,30.17,WNW,292,1.1,3.1,44,0.00,,,0.00,Weather8,2013-04-04 14:00:00,
2013-04-04 10:05:00,41.4,20.4,30.18,North,0,1.8,3.4,43,0.00,,,0.00,Weather8,2013-04-04 14:05:00,
2013-04-04 10:10:00,41.9,21.0,30.17,NW,315,1.8,3.4,43,0.00,,,0.00,Weather8,2013-04-04 14:10:00,
2013-04-04 10:15:00,42.7,22.1,30.17,SW,225,1.1,2.9,44,0.00,,,0.00,Weather8,2013-04-04 14:15:00,
2013-04-04 10:20:00,43.2,21.6,30.17,NW,315,0.4,2.5,42,0.00,,,0.00,Weather8,2013-04-04 14:20:00,
2013-04-04 10:25:00,43.7,22.1,30.17,NNW,337,2.5,2.5,42,0.00,,,0.00,Weather8,2013-04-04 14:25:00,
2013-04-04 10:30:00,44.8,23.1,30.17,NNW,337,2.9,2.9,42,0.00,,,0.00,Weather8,2013-04-04 14:30:00,
2013-04-04 10:35:00,45.4,22.4,30.16,NNW,337,3.1,4.7,40,0.00,,,0.00,Weather8,2013-04-04 14:35:00,
2013-04-04 10:40:00,45.7,22.1,30.16,North,0,3.1,4.7,39,0.00,,,0.00,Weather8,2013-04-04 14:40:00,
2013-04-04 10:45:00,45.9,21.6,30.16,NNW,337,2.5,4.7,38,0.00,,,0.00,Weather8,2013-04-04 14:45:00,
2013-04-04 10:50:00,46.4,23.4,30.16,North,0,0.4,3.1,40,0.00,,,0.00,Weather8,2013-04-04 14:50:00,
2013-04-04 10:55:00,47.0,23.2,30.15,South,180,0.2,4.3,39,0.00,,,0.00,Weather8,2013-04-04 14:55:00,
2013-04-04 11:00:00,47.5,23.7,30.16,North,0,0.7,4.3,39,0.00,,,0.00,Weather8,2013-04-04 15:00:00,
2013-04-04 11:05:00,47.9,23.4,30.15,ENE,67,0.9,4.3,38,0.00,,,0.00,Weather8,2013-04-04 15:05:00,
2013-04-04 11:10:00,48.4,23.9,30.15,NW,315,1.8,2.7,38,0.00,,,0.00,Weather8,2013-04-04 15:10:00,
2013-04-04 11:15:00,48.6,24.0,30.15,SSE,157,1.1,2.7,38,0.00,,,0.00,Weather8,2013-04-04 15:15:00,
2013-04-04 11:20:00,49.3,24.7,30.14,WSW,247,1.8,3.4,38,0.00,,,0.00,Weather8,2013-04-04 15:20:00,
2013-04-04 11:25:00,50.6,25.1,30.14,North,0,1.8,4.3,37,0.00,,,0.00,Weather8,2013-04-04 15:25:00,
2013-04-04 11:30:00,50.9,24.8,30.14,North,0,0.4,4.3,36,0.00,,,0.00,Weather8,2013-04-04 15:30:00,
2013-04-04 11:35:00,51.3,25.0,30.14,SW,225,2.0,3.1,36,0.00,,,0.00,Weather8,2013-04-04 15:35:00,
2013-04-04 11:40:00,51.5,24.5,30.13,North,0,1.3,2.7,35,0.00,,,0.00,Weather8,2013-04-04 15:40:00,
2013-04-04 11:45:00,51.7,24.7,30.13,SE,135,1.3,2.9,35,0.00,,,0.00,Weather8,2013-04-04 15:45:00,
2013-04-04 11:50:00,52.4,24.7,30.13,North,0,2.5,2.9,34,0.00,,,0.00,Weather8,2013-04-04 15:50:00,
2013-04-04 11:55:00,52.9,26.5,30.13,SSW,202,0.2,2.7,36,0.00,,,0.00,Weather8,2013-04-04 15:55:00,
2013-04-04 12:00:00,53.5,25.7,30.12,SW,225,2.5,2.7,34,0.00,,,0.00,Weather8,2013-04-04 16:00:00,
2013-04-04 12:05:00,53.6,25.1,30.12,ESE,112,1.1,2.5,33,0.00,,,0.00,Weather8,2013-04-04 16:05:00,
2013-04-04 12:10:00,54.4,26.4,30.12,SSW,202,0.0,2.5,34,0.00,,,0.00,Weather8,2013-04-04 16:10:00,
2013-04-04 12:15:00,54.4,24.3,30.11,NE,45,1.1,3.1,31,0.00,,,0.00,Weather8,2013-04-04 16:15:00,
2013-04-04 12:20:00,54.5,25.8,30.11,NNE,22,1.1,3.1,33,0.00,,,0.00,Weather8,2013-04-04 16:20:00,
2013-04-04 12:25:00,54.9,25.5,30.10,SSW,202,3.4,5.6,32,0.00,,,0.00,Weather8,2013-04-04 16:25:00,
2013-04-04 12:30:00,54.9,25.5,30.10,NNW,337,2.0,5.6,32,0.00,,,0.00,Weather8,2013-04-04 16:30:00,
2013-04-04 12:35:00,54.9,26.8,30.10,SE,135,3.4,5.6,34,0.00,,,0.00,Weather8,2013-04-04 16:35:00,
2013-04-04 12:40:00,53.8,25.9,30.10,SSE,157,2.7,4.0,34,0.00,,,0.00,Weather8,2013-04-04 16:40:00,
2013-04-04 12:45:00,53.3,26.8,30.10,SSE,157,2.9,4.0,36,0.00,,,0.00,Weather8,2013-04-04 16:45:00,
2013-04-04 12:50:00,53.1,28.0,30.09,SSW,202,4.9,4.9,38,0.00,,,0.00,Weather8,2013-04-04 16:50:00,
2013-04-04 12:55:00,52.2,26.6,30.09,SSE,157,2.9,4.9,37,0.00,,,0.00,Weather8,2013-04-04 16:55:00,
2013-04-04 13:00:00,50.8,25.9,30.10,ESE,112,2.7,4.9,38,0.00,,,0.00,Weather8,2013-04-04 17:00:00,
2013-04-04 13:05:00,50.4,26.3,30.10,SSE,157,4.0,6.9,39,0.00,,,0.00,Weather8,2013-04-04 17:05:00,
2013-04-04 13:10:00,50.6,27.1,30.09,ESE,112,4.5,6.9,40,0.00,,,0.00,Weather8,2013-04-04 17:10:00,
2013-04-04 13:15:00,50.6,27.1,30.09,ESE,112,4.5,4.5,40,0.00,,,0.00,Weather8,2013-04-04 17:15:00,
2013-04-04 13:20:00,50.6,27.1,30.09,ESE,112,4.5,4.5,40,0.00,,,0.00,Weather8,2013-04-04 17:20:00,
2013-04-04 13:25:00,50.6,27.1,30.09,ESE,112,4.5,4.5,40,0.00,,,0.00,Weather8,2013-04-04 17:25:00,
2013-04-04 13:30:00,50.6,27.1,30.09,ESE,112,4.5,4.5,40,0.00,,,0.00,Weather8,2013-04-04 17:30:00,
2013-04-04 13:35:00,49.1,26.9,30.08,SSE,157,3.8,4.5,42,0.00,,,0.00,Weather8,2013-04-04 17:35:00,
2013-04-04 13:40:00,49.3,27.1,30.08,SSE,157,2.2,4.5,42,0.00,,,0.00,Weather8,2013-04-04 17:40:00,
2013-04-04 13:45:00,49.3,27.6,30.08,SSE,157,4.0,6.9,43,0.00,,,0.00,Weather8,2013-04-04 17:45:00,
2013-04-04 13:50:00,49.7,27.5,30.08,SSE,157,6.0,9.2,42,0.00,,,0.00,Weather8,2013-04-04 17:50:00,
2013-04-04 13:55:00,49.0,26.7,30.07,SW,225,2.7,9.2,42,0.00,,,0.00,Weather8,2013-04-04 17:55:00,
2013-04-04 14:00:00,49.3,27.6,30.07,SE,135,4.3,9.2,43,0.00,,,0.00,Weather8,2013-04-04 18:00:00,
2013-04-04 14:05:00,50.0,28.4,30.07,East,90,2.9,7.6,43,0.00,,,0.00,Weather8,2013-04-04 18:05:00,
2013-04-04 14:10:00,50.8,28.5,30.06,ESE,112,2.7,6.9,42,0.00,,,0.00,Weather8,2013-04-04 18:10:00,
2013-04-04 14:15:00,51.3,28.9,30.06,South,180,6.9,6.9,42,0.00,,,0.00,Weather8,2013-04-04 18:15:00,
2013-04-04 14:20:00,51.1,28.2,30.05,South,180,6.0,9.2,41,0.00,,,0.00,Weather8,2013-04-04 18:20:00,
2013-04-04 14:25:00,51.1,28.7,30.05,SE,135,6.5,9.2,42,0.00,,,0.00,Weather8,2013-04-04 18:25:00,
2013-04-04 14:30:00,51.7,29.3,30.05,South,180,6.3,6.5,42,0.00,,,0.00,Weather8,2013-04-04 18:30:00,
2013-04-04 14:35:00,51.3,28.4,30.05,SSE,157,4.0,6.5,41,0.00,,,0.00,Weather8,2013-04-04 18:35:00,
2013-04-04 14:40:00,50.8,27.8,30.04,SW,225,4.7,6.3,41,0.00,,,0.00,Weather8,2013-04-04 18:40:00,
2013-04-04 14:45:00,50.8,28.5,30.04,SE,135,5.4,5.8,42,0.00,,,0.00,Weather8,2013-04-04 18:45:00,
2013-04-04 14:50:00,50.4,28.6,30.03,SSE,157,4.7,5.8,43,0.00,,,0.00,Weather8,2013-04-04 18:50:00,
2013-04-04 14:55:00,50.6,28.3,30.03,SSW,202,3.1,5.8,42,0.00,,,0.00,Weather8,2013-04-04 18:55:00,
2013-04-04 15:00:00,51.1,28.7,30.03,SE,135,4.3,5.6,42,0.00,,,0.00,Weather8,2013-04-04 19:00:00,
2013-04-04 15:05:00,51.5,29.6,30.03,SSW,202,4.3,5.4,43,0.00,,,0.00,Weather8,2013-04-04 19:05:00,
2013-04-04 15:10:00,51.8,30.0,30.02,SSE,157,2.5,5.4,43,0.00,,,0.00,Weather8,2013-04-04 19:10:00,
2013-04-04 15:15:00,52.2,30.2,30.02,South,180,7.2,7.6,43,0.00,,,0.00,Weather8,2013-04-04 19:15:00,
2013-04-04 15:20:00,52.0,29.5,30.02,SSW,202,4.5,7.6,42,0.00,,,0.00,Weather8,2013-04-04 19:20:00,
2013-04-04 15:25:00,52.2,29.7,30.02,SE,135,2.9,7.6,42,0.00,,,0.00,Weather8,2013-04-04 19:25:00,
2013-04-04 15:30:00,51.5,28.5,30.02,SE,135,3.8,5.4,41,0.00,,,0.00,Weather8,2013-04-04 19:30:00,
2013-04-04 15:35:00,50.9,29.2,30.01,SW,225,2.7,4.7,43,0.00,,,0.00,Weather8,2013-04-04 19:35:00,
2013-04-04 15:40:00,51.1,29.3,30.01,South,180,7.6,7.6,43,0.00,,,0.00,Weather8,2013-04-04 19:40:00,
2013-04-04 15:45:00,51.3,29.4,30.01,SSE,157,6.3,7.6,43,0.00,,,0.00,Weather8,2013-04-04 19:45:00,
2013-04-04 15:50:00,50.6,28.3,30.01,SSW,202,8.7,8.7,42,0.00,,,0.00,Weather8,2013-04-04 19:50:00,
2013-04-04 15:55:00,50.6,28.8,30.00,South,180,4.0,8.7,43,0.00,,,0.00,Weather8,2013-04-04 19:55:00,
2013-04-04 16:00:00,50.9,28.5,30.00,South,180,3.8,8.7,42,0.00,,,0.00,Weather8,2013-04-04 20:00:00,
2013-04-04 16:05:00,50.8,29.0,30.00,South,180,3.1,8.3,43,0.00,,,0.00,Weather8,2013-04-04 20:05:00,
2013-04-04 16:11:00,50.4,28.6,30.00,SSW,202,3.8,6.7,43,0.00,,,0.00,Weather8,2013-04-04 20:11:00,
2013-04-04 16:16:00,50.0,28.9,30.00,SE,135,2.7,6.3,44,0.00,,,0.00,Weather8,2013-04-04 20:16:00,
2013-04-04 16:21:00,50.4,29.2,30.00,South,180,6.0,6.0,44,0.00,,,0.00,Weather8,2013-04-04 20:21:00,
2013-04-04 16:26:00,50.6,28.3,30.00,SSW,202,7.2,10.1,42,0.00,,,0.00,Weather8,2013-04-04 20:26:00,
2013-04-04 16:31:00,50.6,28.3,30.00,South,180,5.1,10.1,42,0.00,,,0.00,Weather8,2013-04-04 20:31:00,
2013-04-04 16:36:00,50.4,28.1,30.00,SSW,202,4.0,8.5,42,0.00,,,0.00,Weather8,2013-04-04 20:36:00,
2013-04-04 16:41:00,50.2,28.4,30.00,South,180,1.8,8.9,43,0.00,,,0.00,Weather8,2013-04-04 20:41:00,
2013-04-04 16:46:00,50.2,29.1,29.99,SSE,157,4.0,8.9,44,0.00,,,0.00,Weather8,2013-04-04 20:46:00,
2013-04-04 16:51:00,49.9,29.3,29.99,SE,135,4.7,6.7,45,0.00,,,0.00,Weather8,2013-04-04 20:51:00,
2013-04-04 16:56:00,49.9,29.3,29.99,South,180,3.6,5.6,45,0.00,,,0.00,Weather8,2013-04-04 20:56:00,
2013-04-04 17:01:00,49.7,28.5,29.99,South,180,4.9,7.2,44,0.00,,,0.00,Weather8,2013-04-04 21:01:00,
2013-04-04 17:06:00,49.5,28.4,29.99,SW,225,4.0,7.2,44,0.00,,,0.00,Weather8,2013-04-04 21:06:00,
2013-04-04 17:11:00,49.7,28.5,29.99,SSE,157,3.4,6.7,44,0.00,,,0.00,Weather8,2013-04-04 21:11:00,
2013-04-04 17:16:00,49.7,28.5,29.99,SSW,202,8.5,9.4,44,0.00,,,0.00,Weather8,2013-04-04 21:16:00,
2013-04-04 17:21:00,49.1,28.0,29.99,SSE,157,4.0,10.1,44,0.00,,,0.00,Weather8,2013-04-04 21:21:00,
2013-04-04 17:29:00,48.6,28.1,29.99,SSE,157,5.8,5.8,45,0.00,,,0.00,Weather8,2013-04-04 21:29:00,
2013-04-04 17:34:00,48.2,28.3,29.99,SSW,202,5.4,6.5,46,0.00,,,0.00,Weather8,2013-04-04 21:34:00,
2013-04-04 17:39:00,47.9,27.9,29.99,SW,225,5.4,11.2,46,0.00,,,0.00,Weather8,2013-04-04 21:39:00,
2013-04-04 17:44:00,47.9,28.4,29.99,SSW,202,4.0,11.2,47,0.00,,,0.00,Weather8,2013-04-04 21:44:00,
2013-04-04 17:49:00,47.9,28.4,29.99,South,180,5.8,6.5,47,0.00,,,0.00,Weather8,2013-04-04 21:49:00,
2013-04-04 17:54:00,47.5,28.2,29.99,SSE,157,3.8,6.5,47,0.00,,,0.00,Weather8,2013-04-04 21:54:00,
2013-04-04 17:59:00,47.3,29.1,29.99,SE,135,5.4,5.8,49,0.00,,,0.00,Weather8,2013-04-04 21:59:00,
2013-04-04 18:04:00,46.8,28.6,29.99,SW,225,3.1,9.4,49,0.00,,,0.00,Weather8,2013-04-04 22:04:00,
2013-04-04 18:09:00,46.6,28.5,29.99,WSW,247,5.8,9.4,49,0.00,,,0.00,Weather8,2013-04-04 22:09:00,
2013-04-04 18:14:00,46.3,28.6,29.99,SSW,202,3.6,7.6,50,0.00,,,0.00,Weather8,2013-04-04 22:14:00,
2013-04-04 18:19:00,45.9,27.8,30.00,SW,225,5.4,7.6,49,0.00,,,0.00,Weather8,2013-04-04 22:19:00,
2013-04-04 18:24:00,45.7,28.2,30.00,SSW,202,2.7,7.6,50,0.00,,,0.00,Weather8,2013-04-04 22:24:00,
2013-04-04 18:29:00,45.7,28.2,30.00,SSW,202,3.4,7.4,50,0.00,,,0.00,Weather8,2013-04-04 22:29:00,
2013-04-04 18:34:00,45.5,28.0,30.00,SSW,202,5.4,5.6,50,0.00,,,0.00,Weather8,2013-04-04 22:34:00,
2013-04-04 18:39:00,45.4,28.3,30.00,SSW,202,5.8,5.8,51,0.00,,,0.00,Weather8,2013-04-04 22:39:00,
2013-04-04 18:44:00,45.0,28.0,30.00,SSW,202,4.3,6.7,51,0.00,,,0.00,Weather8,2013-04-04 22:44:00,
2013-04-04 18:49:00,44.8,28.3,29.99,SSW,202,5.4,6.7,52,0.00,,,0.00,Weather8,2013-04-04 22:49:00,
2013-04-04 18:54:00,44.3,27.7,29.99,South,180,2.5,6.9,52,0.00,,,0.00,Weather8,2013-04-04 22:54:00,
2013-04-04 18:59:00,44.1,27.5,29.99,SSW,202,3.8,6.9,52,0.00,,,0.00,Weather8,2013-04-04 22:59:00,
2013-04-04 19:05:00,43.9,27.9,29.99,SSW,202,2.9,5.1,53,0.00,,,0.00,Weather8,2013-04-04 23:05:00,
2013-04-04 19:10:00,43.7,27.7,29.99,South,180,4.9,5.1,53,0.00,,,0.00,Weather8,2013-04-04 23:10:00,
2013-04-04 19:15:00,43.6,27.6,29.99,SSW,202,2.7,5.1,53,0.00,,,0.00,Weather8,2013-04-04 23:15:00,
2013-04-04 19:20:00,43.4,27.4,29.98,South,180,4.5,5.1,53,0.00,,,0.00,Weather8,2013-04-04 23:20:00,
2013-04-04 19:25:00,43.2,27.2,29.98,SW,225,1.8,4.7,53,0.00,,,0.00,Weather8,2013-04-04 23:25:00,
2013-04-04 19:30:00,43.2,27.6,29.98,SSW,202,3.6,5.4,54,0.00,,,0.00,Weather8,2013-04-04 23:30:00,
2013-04-04 19:35:00,43.0,27.5,29.98,South,180,2.7,5.4,54,0.00,,,0.00,Weather8,2013-04-04 23:35:00,
2013-04-04 19:40:00,42.7,27.5,29.98,SSW,202,3.8,6.0,55,0.00,,,0.00,Weather8,2013-04-04 23:40:00,
2013-04-04 19:45:00,42.5,27.4,29.97,SW,225,1.1,6.0,55,0.00,,,0.00,Weather8,2013-04-04 23:45:00,
2013-04-04 19:50:00,42.3,27.6,29.97,SSW,202,2.2,6.0,56,0.00,,,0.00,Weather8,2013-04-04 23:50:00,
2013-04-04 19:55:00,42.3,27.6,29.97,South,180,3.6,5.1,56,0.00,,,0.00,Weather8,2013-04-04 23:55:00,
2013-04-04 20:00:00,42.1,27.9,29.97,SE,135,3.8,3.8,57,0.00,,,0.00,Weather8,2013-04-05 00:00:00,
2013-04-04 20:05:00,42.1,27.9,29.97,SSE,157,1.8,3.8,57,0.00,,,0.00,Weather8,2013-04-05 00:05:00,
2013-04-04 20:10:00,41.9,28.2,29.97,SSW,202,3.4,4.7,58,0.00,,,0.00,Weather8,2013-04-05 00:10:00,
2013-04-04 20:15:00,41.8,28.0,29.97,SW,225,2.7,4.7,58,0.00,,,0.00,Weather8,2013-04-05 00:15:00,
2013-04-04 20:20:00,41.6,28.7,29.97,SSW,202,3.6,3.8,60,0.00,,,0.00,Weather8,2013-04-05 00:20:00,
2013-04-04 20:25:00,41.4,28.6,29.97,SSW,202,4.0,4.7,60,0.00,,,0.00,Weather8,2013-04-05 00:25:00,
2013-04-04 20:30:00,41.4,28.6,29.97,SSW,202,2.9,4.7,60,0.00,,,0.00,Weather8,2013-04-05 00:30:00,
2013-04-04 20:35:00,41.2,28.5,29.97,SSW,202,5.4,5.6,60,0.00,,,0.00,Weather8,2013-04-05 00:35:00,
2013-04-04 20:40:00,41.2,28.5,29.96,SSE,157,4.0,5.6,60,0.00,,,0.00,Weather8,2013-04-05 00:40:00,
2013-04-04 20:45:00,41.0,27.8,29.96,SSW,202,1.6,5.8,59,0.00,,,0.00,Weather8,2013-04-05 00:45:00,
2013-04-04 20:50:00,41.0,27.8,29.96,SW,225,5.8,5.8,59,0.00,,,0.00,Weather8,2013-04-05 00:50:00,
2013-04-04 20:55:00,41.0,27.4,29.97,SW,225,2.2,5.8,58,0.00,,,0.00,Weather8,2013-04-05 00:55:00,
2013-04-04 21:00:00,41.0,27.4,29.97,SW,225,4.5,5.8,58,0.00,,,0.00,Weather8,2013-04-05 01:00:00,
2013-04-04 21:05:00,40.9,27.6,29.97,SSW,202,4.3,4.5,59,0.00,,,0.00,Weather8,2013-04-05 01:05:00,
2013-04-04 21:10:00,41.0,27.8,29.97,SSW,202,1.1,4.9,59,0.00,,,0.00,Weather8,2013-04-05 01:10:00,
2013-04-04 21:15:00,40.9,28.1,29.97,South,180,4.0,4.9,60,0.00,,,0.00,Weather8,2013-04-05 01:15:00,
2013-04-04 21:20:00,40.9,28.1,29.96,SSW,202,3.4,4.9,60,0.00,,,0.00,Weather8,2013-04-05 01:20:00,
2013-04-04 21:25:00,41.0,28.6,29.96,South,180,4.7,6.0,61,0.00,,,0.00,Weather8,2013-04-05 01:25:00,
2013-04-04 21:30:00,41.0,29.0,29.96,South,180,2.5,6.0,62,0.00,,,0.00,Weather8,2013-04-05 01:30:00,
2013-04-04 21:35:00,41.0,28.6,29.96,SSE,157,2.0,4.7,61,0.00,,,0.00,Weather8,2013-04-05 01:35:00,
2013-04-04 21:40:00,40.9,29.3,29.96,South,180,4.7,4.7,63,0.00,,,0.00,Weather8,2013-04-05 01:40:00,
2013-04-04 21:45:00,40.9,29.6,29.96,SW,225,2.7,7.6,64,0.00,,,0.00,Weather8,2013-04-05 01:45:00,
2013-04-04 21:50:00,40.9,29.3,29.96,WNW,292,3.1,7.6,63,0.00,,,0.00,Weather8,2013-04-05 01:50:00,
2013-04-04 21:55:00,41.0,29.8,29.95,South,180,4.0,7.6,64,0.00,,,0.00,Weather8,2013-04-05 01:55:00,
2013-04-04 22:00:00,41.0,29.4,29.95,SE,135,1.8,4.0,63,0.00,,,0.00,Weather8,2013-04-05 02:00:00,
2013-04-04 22:05:00,41.0,29.8,29.95,SSW,202,1.8,4.9,64,0.00,,,0.00,Weather8,2013-04-05 02:05:00,
2013-04-04 22:10:00,41.0,30.2,29.95,SW,225,2.5,4.9,65,0.00,,,0.00,Weather8,2013-04-05 02:10:00,
2013-04-04 22:15:00,41.0,29.8,29.95,SW,225,2.7,2.7,64,0.00,,,0.00,Weather8,2013-04-05 02:15:00,
2013-04-04 22:20:00,41.0,30.2,29.95,SSW,202,2.5,4.5,65,0.00,,,0.00,Weather8,2013-04-05 02:20:00,
2013-04-04 22:25:00,41.0,30.2,29.94,WSW,247,1.8,4.9,65,0.00,,,0.00,Weather8,2013-04-05 02:25:00,
2013-04-04 22:30:00,41.0,30.2,29.95,WSW,247,1.3,4.9,65,0.00,,,0.00,Weather8,2013-04-05 02:30:00,
2013-04-04 22:35:00,41.0,30.2,29.93,SW,225,3.1,3.1,65,0.00,,,0.00,Weather8,2013-04-05 02:35:00,
2013-04-04 22:40:00,41.0,30.2,29.94,SW,225,1.1,3.4,65,0.00,,,0.00,Weather8,2013-04-05 02:40:00,
2013-04-04 22:45:00,41.2,30.7,29.94,South,180,2.2,5.1,66,0.00,,,0.00,Weather8,2013-04-05 02:45:00,
2013-04-04 22:50:00,41.0,30.2,29.94,South,180,1.3,5.1,65,0.00,,,0.00,Weather8,2013-04-05 02:50:00,
2013-04-04 22:55:00,41.0,30.2,29.93,SSW,202,2.2,2.5,65,0.00,,,0.00,Weather8,2013-04-05 02:55:00,
2013-04-04 23:00:00,41.0,30.5,29.93,SSW,202,1.3,3.6,66,0.00,,,0.00,Weather8,2013-04-05 03:00:00,
2013-04-04 23:05:00,41.0,30.5,29.92,WSW,247,1.1,3.6,66,0.00,,,0.00,Weather8,2013-04-05 03:05:00,
2013-04-04 23:10:00,41.0,30.2,29.92,SSW,202,1.8,3.6,65,0.00,,,0.00,Weather8,2013-04-05 03:10:00,
2013-04-04 23:15:00,41.0,30.5,29.92,SW,225,1.3,2.0,66,0.00,,,0.00,Weather8,2013-04-05 03:15:00,
2013-04-04 23:20:00,41.0,30.5,29.91,WSW,247,1.8,3.8,66,0.00,,,0.00,Weather8,2013-04-05 03:20:00,
2013-04-04 23:25:00,41.0,30.5,29.91,SW,225,2.0,3.8,66,0.00,,,0.00,Weather8,2013-04-05 03:25:00,
2013-04-04 23:30:00,41.0,30.5,29.91,SW,225,1.8,3.8,66,0.00,,,0.00,Weather8,2013-04-05 03:30:00,
2013-04-04 23:35:00,41.0,30.5,29.91,SSW,202,1.8,2.0,66,0.00,,,0.00,Weather8,2013-04-05 03:35:00,
2013-04-04 23:40:00,41.0,30.5,29.91,SSW,202,1.6,2.7,66,0.00,,,0.00,Weather8,2013-04-05 03:40:00,
2013-04-04 23:45:00,40.9,30.7,29.91,SSW,202,1.8,3.1,67,0.00,,,0.00,Weather8,2013-04-05 03:45:00,
2013-04-04 23:50:00,40.9,30.7,29.90,SSW,202,3.1,3.4,67,0.00,,,0.00,Weather8,2013-04-05 03:50:00,
2013-04-04 23:55:00,40.9,30.7,29.90,SSW,202,1.8,3.4,67,0.00,,,0.00,Weather8,2013-04-05 03:55:00,